{"data":{"norad_id":68545,"epoch":"2026-09-19T06:14:14.908128Z","epoch_age_seconds":152040,"freshness":"FRESH","line1":"1 68545U 26070D   26262.25989477  .00026967  00000+0  80558-3 0  9990","line2":"2 68545  53.1575 179.7597 0001462 102.2781 257.8385 15.34432339 26244","mean_motion":15.34432339,"eccentricity":0.0001462,"inclination_deg":53.1575,"raan_deg":179.7597,"arg_perigee_deg":102.2781,"mean_anomaly_deg":257.8385,"bstar":0.00080558,"rev_number":2624,"period_min":93.845780188552,"perigee_km":461.60700678123,"apogee_km":463.60724036296,"semimajor_km":6840.7441235721,"source":"CELESTRAK","updated_at":"2026-09-20T09:00:43.910338Z"}}